STARLINK-5366, 55499

Orbit data source: Space-Track

STARLINK-5366, 55499 is a payload satellite owned by SpaceX/Seattle (US) in LEO that was launched on Thu, 02 Feb 2023 UTC via an FALCON 9 launch vehicle from the Air Force Eastern Test Range (AFETR). Payload-class satellites include a variety of spacecraft equipped with specific instruments for various scientific and technological missions. These include communications satellites like Starlink; space stations such as the ISS; scientific satellites like the Hubble; Earth observation satellites from companies like Planet Labs, Umbra, and HawkEye 360; GPS; miniature CubeSats for education and research; and military/defense satellites.

Loading next visibility...
Identifier
55499, 2023-015BC
Orbit
LEO
Country
Flag of USUS
Related business
Manufacturer
SpaceX/Seattle
Mission
Operational Commercial Communications
Bus & Motor
STARLINK, Unknown motor
Mass
305 kg wet, ~290 kg dry
Launch date (UTC)
2023-02-02 (3 years ago)
Launch vehicle
FALCON 9
Launch site
Air Force Eastern Test Range (AFETR)
Object type
Payload
Rocket body
Debris
Shape & HBR
Box + 1 Pan, 10.1 m
Radar Cross Section
13.562 m², Large (>1 m²)

Expand to show TLE details & history
Last TLE update: 11 hours ago

TLE from 11 hours ago
0 STARLINK-5366
1 55499U 23015BC  26035.60793759 -.00000366  00000-0 -11978-4 0  9992
2 55499  43.0058 158.2147 0001463 276.1366  83.9310 15.02542456166389
Epoch: 2026-02-04T14:35Z
TLE epoch observation values (Epoch: 2026-02-04T14:35:25.807Z)
Latitude
-0.00001°
Longitude
164.58508°
Altitude
558.731 km
Speed
7.584 km/s
True Right ascension
10h 32m 51s
True Declination
0° 00' 00"
Sunlit
Object was in full shadow at epoch
Visualization orbit readout
Latitude
Unknown
Longitude
Unknown
Altitude
Unknown
Speed
Unknown
Apparent Right ascension
Unknown
Apparent Declination
Unknown
Sunlit
N/A
Visualization observer readout
Local Sidereal Time
03:18:46
Azimuth
Unknown
Elevation
Unknown
Doppler factor
Unknown
Orbital elements
Apogee altitude
561.998 km
Perigee altitude
559.967 km
Semi-major axis
6,939.12 km
Eccentricity
0.00015
Inclination
43.0058°
RAAN
158.2147°
Arg. of periapsis
276.1366°
True anomaly
83.94767°
Mean anomaly
83.931°
Eccentric anomaly
83.93934°
Mean motion
3.7548 °/min
Orbital period
95.88 mins
BSTAR
-0.000011978
Loading maneuver chart data...
Computing Atmospheric mass density...
Loading historical data...
Loading historical data...
Loading historical data...
Loading historical data...
Loading historical data...
Loading historical data...
Loading historical data...

Documentation

Showing up to 5 results
|